| time (UTC) | temp F | wind direction | speed MPH | gust MPH | rain 1hr in | rain 24hr in | rain mn in | humidity % | barometer mb |
| 20260903191423 | 94 | 158 | 5.0 | 10.0 | 0.00 | 0.00 | 0.00 | 52 | 1009.7 |
| 20260903190402 | 94 | 158 | 6.0 | 9.0 | 0.00 | 0.00 | 0.00 | 54 | 1009.8 |
| 20260903185402 | 94 | 158 | 7.0 | 15.0 | 0.00 | 0.00 | 0.00 | 53 | 1009.9 |
| 20260903184402 | 93 | 180 | 7.0 | 13.0 | 0.00 | 0.00 | 0.00 | 54 | 1010.0 |
| 20260903183403 | 93 | 135 | 7.0 | 10.0 | 0.00 | 0.00 | 0.00 | 56 | 1010.2 |
| 20260903182402 | 93 | 225 | 9.0 | 14.0 | 0.00 | 0.00 | 0.00 | 55 | 1010.3 |
| 20260903181403 | 93 | 180 | 3.0 | 7.0 | 0.00 | 0.00 | 0.00 | 55 | 1010.4 |
| 20260903180403 | 92 | 158 | 3.0 | 5.0 | 0.00 | 0.00 | 0.00 | 58 | 1010.6 |
| 20260903175443 | 92 | 203 | 8.0 | 12.0 | 0.00 | 0.00 | 0.00 | 57 | 1010.8 |
| 20260903174403 | 92 | 203 | 7.0 | 16.0 | 0.00 | 0.00 | 0.00 | 60 | 1010.9 |
| 20260903173403 | 91 | 203 | 7.0 | 13.0 | 0.00 | 0.00 | 0.00 | 58 | 1010.9 |
| 20260903172402 | 91 | 180 | 1.0 | 2.0 | 0.00 | 0.00 | 0.00 | 58 | 1010.9 |
| 20260903171402 | 90 | 180 | 7.0 | 14.0 | 0.00 | 0.00 | 0.00 | 58 | 1011.1 |
| 20260903170403 | 90 | 203 | 6.0 | 9.0 | 0.00 | 0.00 | 0.00 | 60 | 1011.1 |
| 20260903165403 | 90 | 203 | 8.0 | 12.0 | 0.00 | 0.00 | 0.00 | 60 | 1011.2 |
| 20260903164403 | 89 | 203 | 10.0 | 15.0 | 0.00 | 0.00 | 0.00 | 60 | 1011.3 |
| 20260903163402 | 89 | 203 | 10.0 | 15.0 | 0.00 | 0.00 | 0.00 | 60 | 1011.3 |
| 20260903162402 | 89 | 158 | 5.0 | 9.0 | 0.00 | 0.00 | 0.00 | 62 | 1011.4 |
| 20260903161402 | 89 | 225 | 9.0 | 13.0 | 0.00 | 0.00 | 0.00 | 65 | 1011.4 |
| 20260903160402 | 88 | 180 | 3.0 | 6.0 | 0.00 | 0.00 | 0.00 | 65 | 1011.5 |
| 20260903155402 | 88 | 158 | 5.0 | 10.0 | 0.00 | 0.00 | 0.00 | 65 | 1011.5 |
| 20260903154422 | 87 | 158 | 2.0 | 7.0 | 0.00 | 0.00 | 0.00 | 68 | 1011.5 |
| 20260903153402 | 87 | 203 | 4.0 | 7.0 | 0.00 | 0.00 | 0.00 | 67 | 1011.4 |
| 20260903152422 | 86 | 203 | 9.0 | 13.0 | 0.00 | 0.00 | 0.00 | 67 | 1011.4 |
| 20260903151422 | 86 | 203 | 5.0 | 8.0 | 0.00 | 0.00 | 0.00 | 69 | 1011.5 |
| 20260903150402 | 85 | 203 | 8.0 | 12.0 | 0.00 | 0.00 | 0.00 | 70 | 1011.5 |
| 20260903145423 | 84 | 203 | 6.0 | 10.0 | 0.00 | 0.00 | 0.00 | 70 | 1011.4 |
| 20260903143402 | 83 | 203 | 10.0 | 18.0 | 0.00 | 0.00 | 0.00 | 71 | 1011.5 |
| 20260903142443 | 83 | 203 | 6.0 | 10.0 | 0.00 | 0.00 | 0.00 | 73 | 1011.6 |
| 20260903141403 | 82 | 203 | 4.0 | 17.0 | 0.00 | 0.00 | 0.00 | 73 | 1011.7 |
| 20260903140402 | 82 | 203 | 6.0 | 9.0 | 0.00 | 0.00 | 0.00 | 74 | 1011.6 |
| 20260903135402 | 81 | 203 | 6.0 | 8.0 | 0.00 | 0.00 | 0.00 | 73 | 1011.6 |
| 20260903134402 | 81 | 203 | 4.0 | 8.0 | 0.00 | 0.00 | 0.00 | 74 | 1011.6 |
| 20260903133402 | 80 | 203 | 4.0 | 8.0 | 0.00 | 0.00 | 0.00 | 75 | 1011.6 |
| 20260903132402 | 79 | 180 | 3.0 | 5.0 | 0.00 | 0.00 | 0.00 | 76 | 1011.7 |
| 20260903131402 | 79 | 180 | 5.0 | 7.0 | 0.00 | 0.00 | 0.00 | 77 | 1011.5 |
| 20260903130402 | 78 | 180 | 5.0 | 8.0 | 0.00 | 0.00 | 0.00 | 77 | 1011.4 |
| 20260903125402 | 78 | 158 | 3.0 | 6.0 | 0.00 | 0.00 | 0.00 | 78 | 1011.5 |
| 20260903124422 | 77 | 203 | 1.0 | 3.0 | 0.00 | 0.00 | 0.00 | 78 | 1011.5 |
| 20260903123422 | 77 | 158 | 3.0 | 5.0 | 0.00 | 0.00 | 0.00 | 79 | 1011.4 |
| 20260903122402 | 76 | 203 | 1.0 | 3.0 | 0.00 | 0.00 | 0.00 | 79 | 1011.6 |
| 20260903121402 | 76 | 135 | 1.0 | 2.0 | 0.00 | 0.00 | 0.00 | 79 | 1011.5 |
| 20260903120402 | 76 | 158 | 1.0 | 5.0 | 0.00 | 0.00 | 0.00 | 79 | 1011.4 |
| 20260903115402 | 77 | 180 | 1.0 | 4.0 | 0.00 | 0.00 | 0.00 | 78 | 1011.1 |
| 20260903114402 | 77 | 180 | 3.0 | 5.0 | 0.00 | 0.00 | 0.00 | 78 | 1011.2 |
| 20260903113423 | 77 | 180 | 1.0 | 2.0 | 0.00 | 0.00 | 0.00 | 78 | 1011.1 |
| 20260903112422 | 77 | 180 | 1.0 | 2.0 | 0.00 | 0.00 | 0.00 | 77 | 1011.1 |
| 20260903111401 | 77 | 203 | 1.0 | 2.0 | 0.00 | 0.00 | 0.00 | 77 | 1011.1 |
| 20260903110402 | 77 | 203 | 2.0 | 6.0 | 0.00 | 0.00 | 0.00 | 76 | 1011.0 |
| 20260903105402 | 77 | 180 | 3.0 | 5.0 | 0.00 | 0.00 | 0.00 | 76 | 1011.2 |
| 20260903104402 | 78 | 203 | 1.0 | 2.0 | 0.00 | 0.00 | 0.00 | 75 | 1011.1 |
| 20260903103401 | 78 | 203 | 2.0 | 4.0 | 0.00 | 0.00 | 0.00 | 74 | 1010.8 |
| 20260903102402 | 78 | 203 | 2.0 | 5.0 | 0.00 | 0.00 | 0.00 | 74 | 1010.9 |
| 20260903101402 | 79 | 203 | 3.0 | 6.0 | 0.00 | 0.00 | 0.00 | 73 | 1010.9 |
| 20260903100401 | 79 | 203 | 4.0 | 6.0 | 0.00 | 0.00 | 0.00 | 72 | 1010.9 |
| 20260903095401 | 79 | 203 | 2.0 | 5.0 | 0.00 | 0.00 | 0.00 | 72 | 1010.8 |
| 20260903094344 | 80 | 180 | 4.0 | 8.0 | 0.00 | 0.00 | 0.00 | 71 | 1010.9 |
| 20260903093324 | 80 | 180 | 5.0 | 10.0 | 0.00 | 0.00 | 0.00 | 70 | 1010.9 |
| 20260903092306 | 81 | 180 | 7.0 | 11.0 | 0.00 | 0.00 | 0.00 | 70 | 1010.8 |
| 20260903091304 | 81 | 203 | 4.0 | 11.0 | 0.00 | 0.00 | 0.00 | 69 | 1010.9 |
| 20260903090303 | 81 | 180 | 6.0 | 11.0 | 0.00 | 0.00 | 0.00 | 69 | 1010.8 |
| 20260903085306 | 80 | 180 | 4.0 | 7.0 | 0.00 | 0.00 | 0.00 | 70 | 1010.8 |
| 20260903084304 | 80 | 203 | 1.0 | 4.0 | 0.00 | 0.00 | 0.00 | 71 | 1010.8 |
| 20260903083324 | 79 | 180 | 1.0 | 3.0 | 0.00 | 0.00 | 0.00 | 71 | 1010.7 |
| 20260903082306 | 80 | 225 | 2.0 | 4.0 | 0.00 | 0.00 | 0.00 | 70 | 1010.8 |
| 20260903081344 | 80 | 203 | 2.0 | 3.0 | 0.00 | 0.00 | 0.00 | 69 | 1010.7 |
| 20260903080303 | 80 | 158 | 2.0 | 5.0 | 0.00 | 0.00 | 0.00 | 69 | 1010.6 |
| 20260903075306 | 80 | 158 | 1.0 | 3.0 | 0.00 | 0.00 | 0.00 | 69 | 1010.6 |
| 20260903074304 | 79 | 158 | 2.0 | 7.0 | 0.00 | 0.00 | 0.00 | 70 | 1010.6 |
| 20260903073303 | 79 | 158 | 1.0 | 2.0 | 0.00 | 0.00 | 0.00 | 71 | 1010.5 |
| 20260903072306 | 79 | 158 | 1.0 | 4.0 | 0.00 | 0.00 | 0.00 | 70 | 1010.5 |
| 20260903071303 | 79 | 0.0 | 1.0 | 0.00 | 0.00 | 0.00 | 70 | 1010.6 | |
| 20260903070303 | 79 | 180 | 1.0 | 4.0 | 0.00 | 0.00 | 0.00 | 70 | 1010.6 |
| 20260903065306 | 79 | 180 | 1.0 | 1.0 | 0.00 | 0.00 | 0.00 | 71 | 1010.6 |
| 20260903064303 | 79 | 180 | 1.0 | 2.0 | 0.00 | 0.00 | 0.00 | 71 | 1010.6 |
| 20260903063323 | 79 | 0.0 | 1.0 | 0.00 | 0.00 | 0.00 | 72 | 1010.7 | |
| 20260903062306 | 79 | 158 | 1.0 | 2.0 | 0.00 | 0.00 | 0.00 | 72 | 1010.6 |
| 20260903061303 | 78 | 0.0 | 1.0 | 0.00 | 0.00 | 0.00 | 74 | 1010.6 | |
| 20260903060303 | 78 | 0.0 | 1.0 | 0.00 | 0.00 | 0.00 | 74 | 1010.6 | |
| 20260903055306 | 78 | 0.0 | 1.0 | 0.00 | 0.00 | 0.00 | 73 | 1010.6 | |
| 20260903054303 | 78 | 0.0 | 1.0 | 0.00 | 0.00 | 0.00 | 73 | 1010.7 | |
| 20260903053303 | 77 | 0.0 | 1.0 | 0.00 | 0.00 | 0.00 | 75 | 1010.6 | |
| 20260903052306 | 78 | 113 | 1.0 | 4.0 | 0.00 | 0.00 | 0.00 | 74 | 1010.6 |
| 20260903051303 | 79 | 158 | 1.0 | 1.0 | 0.00 | 0.00 | 0.00 | 71 | 1010.5 |
| 20260903050323 | 78 | 158 | 1.0 | 1.0 | 0.00 | 0.00 | 0.00 | 74 | 1010.4 |
| 20260903045402 | 78 | 0.0 | 0.0 | 0.00 | 0.00 | 0.00 | 76 | 1010.3 | |
| 20260903044422 | 78 | 158 | 1.0 | 2.0 | 0.00 | 0.00 | 0.00 | 77 | 1010.3 |
| 20260903043503 | 79 | 0.0 | 1.0 | 0.00 | 0.00 | 0.00 | 74 | 1010.3 | |
| 20260903042402 | 80 | 158 | 1.0 | 1.0 | 0.00 | 0.00 | 0.00 | 72 | 1010.3 |
| 20260903041401 | 80 | 0.0 | 2.0 | 0.00 | 0.00 | 0.00 | 70 | 1010.4 | |
| 20260903040402 | 81 | 0.0 | 1.0 | 0.00 | 0.00 | 0.00 | 70 | 1010.6 | |
| 20260903035401 | 82 | 158 | 1.0 | 2.0 | 0.00 | 0.00 | 0.00 | 68 | 1010.5 |
| 20260903034401 | 82 | 0.0 | 2.0 | 0.00 | 0.00 | 0.00 | 67 | 1010.5 | |
| 20260903033402 | 82 | 158 | 1.0 | 1.0 | 0.00 | 0.00 | 0.00 | 67 | 1010.5 |
| 20260903032404 | 82 | 0.0 | 1.0 | 0.00 | 0.00 | 0.00 | 67 | 1010.4 | |
| 20260903031403 | 82 | 135 | 1.0 | 3.0 | 0.00 | 0.00 | 0.00 | 68 | 1010.4 |
| 20260903030404 | 82 | 0.0 | 1.0 | 0.00 | 0.00 | 0.00 | 69 | 1010.4 | |
| 20260903025404 | 81 | 0.0 | 1.0 | 0.00 | 0.00 | 0.00 | 70 | 1010.4 | |
| 20260903024423 | 81 | 0.0 | 1.0 | 0.00 | 0.00 | 0.00 | 72 | 1010.3 | |
| 20260903023403 | 81 | 0.0 | 1.0 | 0.00 | 0.00 | 0.00 | 72 | 1010.3 | |
| 20260903022403 | 81 | 0.0 | 1.0 | 0.00 | 0.00 | 0.00 | 73 | 1010.2 | |
| 20260903021424 | 81 | 0.0 | 0.0 | 0.00 | 0.00 | 0.00 | 74 | 1010.0 | |
| 20260903020403 | 81 | 0.0 | 0.0 | 0.00 | 0.00 | 0.00 | 73 | 1009.9 | |
| 20260903015403 | 82 | 0.0 | 0.0 | 0.00 | 0.00 | 0.00 | 73 | 1009.8 | |
| 20260903014403 | 82 | 0.0 | 1.0 | 0.00 | 0.00 | 0.00 | 74 | 1009.6 | |
| 20260903013404 | 82 | 0.0 | 0.0 | 0.00 | 0.00 | 0.00 | 74 | 1009.5 | |
| 20260903012403 | 83 | 0.0 | 0.0 | 0.00 | 0.00 | 0.00 | 69 | 1009.3 | |
| 20260903011403 | 84 | 0.0 | 0.0 | 0.00 | 0.00 | 0.00 | 70 | 1009.3 | |
| 20260903010423 | 85 | 0.0 | 0.0 | 0.00 | 0.00 | 0.00 | 66 | 1009.3 | |
| 20260903005403 | 86 | 0.0 | 0.0 | 0.00 | 0.00 | 0.00 | 65 | 1009.3 | |
| 20260903004403 | 88 | 0.0 | 0.0 | 0.00 | 0.00 | 0.00 | 61 | 1009.4 | |
| 20260903003403 | 89 | 0.0 | 1.0 | 0.00 | 0.00 | 0.00 | 59 | 1009.3 | |
| 20260903002403 | 90 | 0.0 | 0.0 | 0.00 | 0.00 | 0.00 | 58 | 1009.4 | |
| 20260903001403 | 92 | 0.0 | 1.0 | 0.00 | 0.00 | 0.00 | 55 | 1009.4 | |
| 20260903000403 | 93 | 0.0 | 1.0 | 0.00 | 0.00 | 0.00 | 54 | 1009.5 | |
| 20260902235403 | 94 | 0.0 | 0.0 | 0.00 | 0.00 | 0.00 | 52 | 1009.6 | |
| 20260902234403 | 95 | 158 | 3.0 | 6.0 | 0.00 | 0.00 | 0.00 | 46 | 1009.6 |
| 20260902233403 | 95 | 0.0 | 1.0 | 0.00 | 0.00 | 0.00 | 47 | 1009.6 | |
| 20260902232403 | 95 | 203 | 1.0 | 2.0 | 0.00 | 0.00 | 0.00 | 47 | 1009.6 |
| 20260902231403 | 96 | 0.0 | 1.0 | 0.00 | 0.00 | 0.00 | 45 | 1009.6 | |
| 20260902230403 | 96 | 180 | 3.0 | 6.0 | 0.00 | 0.00 | 0.00 | 44 | 1009.7 |
| 20260902225404 | 96 | 180 | 4.0 | 9.0 | 0.00 | 0.00 | 0.00 | 44 | 1009.7 |
| 20260902224403 | 97 | 158 | 6.0 | 7.0 | 0.00 | 0.00 | 0.00 | 44 | 1009.7 |
| 20260902223404 | 97 | 203 | 4.0 | 6.0 | 0.00 | 0.00 | 0.00 | 44 | 1009.7 |
| 20260902222403 | 97 | 203 | 4.0 | 9.0 | 0.00 | 0.00 | 0.00 | 45 | 1009.8 |
| 20260902221403 | 97 | 180 | 3.0 | 5.0 | 0.00 | 0.00 | 0.00 | 43 | 1009.8 |
| 20260902220403 | 97 | 225 | 5.0 | 7.0 | 0.00 | 0.00 | 0.00 | 45 | 1009.8 |
| 20260902215403 | 97 | 203 | 3.0 | 5.0 | 0.00 | 0.00 | 0.00 | 47 | 1009.9 |
| 20260902214404 | 97 | 225 | 10.0 | 13.0 | 0.00 | 0.00 | 0.00 | 43 | 1010.0 |
| 20260902213403 | 97 | 180 | 6.0 | 11.0 | 0.00 | 0.00 | 0.00 | 45 | 1010.1 |
| 20260902212403 | 97 | 180 | 2.0 | 5.0 | 0.00 | 0.00 | 0.00 | 47 | 1010.2 |
| 20260902211403 | 97 | 225 | 5.0 | 8.0 | 0.00 | 0.00 | 0.00 | 46 | 1010.4 |
| 20260902210403 | 97 | 203 | 7.0 | 12.0 | 0.00 | 0.00 | 0.00 | 45 | 1010.4 |
| 20260902205403 | 97 | 203 | 6.0 | 9.0 | 0.00 | 0.00 | 0.00 | 46 | 1010.7 |
| 20260902204424 | 97 | 225 | 5.0 | 9.0 | 0.00 | 0.00 | 0.00 | 47 | 1010.7 |
| 20260902203403 | 97 | 248 | 10.0 | 12.0 | 0.00 | 0.00 | 0.00 | 45 | 1010.8 |
| 20260902202403 | 97 | 225 | 10.0 | 15.0 | 0.00 | 0.00 | 0.00 | 45 | 1010.9 |
| 20260902201423 | 97 | 225 | 4.0 | 6.0 | 0.00 | 0.00 | 0.00 | 48 | 1010.9 |
| 20260902200423 | 96 | 225 | 7.0 | 15.0 | 0.00 | 0.00 | 0.00 | 51 | 1011.1 |
| 20260902195403 | 95 | 180 | 4.0 | 6.0 | 0.00 | 0.00 | 0.00 | 51 | 1011.2 |
| 20260902194403 | 96 | 158 | 5.0 | 9.0 | 0.00 | 0.00 | 0.00 | 50 | 1011.4 |
| 20260902193402 | 94 | 203 | 1.0 | 1.0 | 0.00 | 0.00 | 0.00 | 54 | 1011.5 |
| 20260902192402 | 94 | 225 | 4.0 | 6.0 | 0.00 | 0.00 | 0.00 | 51 | 1011.7 |